EA3DKP Weather Reports


time (UTC)temp
C
wind
direction
speed
KPH
gust
KPH
rain 1hr
cm
rain 24hr
cm
rain mn
cm
humidity
%
barometer
mb
20260902153047 30 360 0.0 0.0 0.00 0.00 0.00 60 1017.0
20260902151547 32 360 0.0 0.0 0.00 0.00 0.00 46 1016.9
20260902150045 32 360 0.0 0.0 0.00 0.00 0.00 40 1016.9
20260902144545 32 360 0.0 0.0 0.00 0.00 0.00 40 1017.1
20260902143044 33 360 0.0 0.0 0.00 0.00 0.00 43 1017.3
20260902141540 32 360 0.0 0.0 0.00 0.00 0.00 40 1017.2
20260902140027 32 360 0.0 0.0 0.00 0.00 0.00 40 1017.2
20260902134526 32 208 0.0 0.0 0.00 0.00 0.00 41 1017.2
20260902133025 32 360 0.0 0.0 0.00 0.00 0.00 41 1017.3
20260902131523 31 360 0.0 0.0 0.00 0.00 0.00 42 1017.4
20260902130021 31 128 0.0 0.0 0.00 0.00 0.00 42 1017.3
20260902124521 31 360 0.0 0.0 0.00 0.00 0.00 42 1017.5
20260902123022 31 360 0.0 0.0 0.00 0.00 0.00 42 1017.7
20260902121519 31 360 0.0 0.0 0.00 0.00 0.00 42 1017.7
20260902120006 31 360 0.0 0.0 0.00 0.00 0.00 43 1017.7
20260902114504 31 360 0.0 0.0 0.00 0.00 0.00 43 1017.8
20260902113004 30 360 0.0 0.0 0.00 0.00 0.00 43 1017.9
20260902111502 30 360 0.0 0.0 0.00 0.00 0.00 42 1017.9
20260902110101 30 360 0.0 0.0 0.00 0.00 0.00 43 1017.9
20260902104559 30 360 0.0 0.0 0.00 0.00 0.00 42 1018.0
20260902103107 30 360 0.0 0.0 0.00 0.00 0.00 43 1018.2
20260902101552 30 360 0.0 0.0 0.00 0.00 0.00 43 1018.1
20260902100057 30 360 0.0 0.0 0.00 0.00 0.00 44 1018.1
20260902094534 30 360 0.0 0.0 0.00 0.00 0.00 45 1018.3
20260902093033 29 360 0.0 0.0 0.00 0.00 0.00 55 1018.5
20260902091527 28 244 0.0 0.0 0.00 0.00 0.00 58 1018.4
20260902090021 27 360 0.0 0.0 0.00 0.00 0.00 61 1018.3
20260902084519 27 360 0.0 0.0 0.00 0.00 0.00 66 1018.2
20260902083014 26 360 0.0 0.0 0.00 0.00 0.00 67 1018.1
20260902081509 26 360 0.0 0.0 0.00 0.00 0.00 71 1018.1
20260902080105 25 360 0.0 0.0 0.00 0.00 0.00 73 1018.1
20260902074550 24 360 0.0 0.0 0.00 0.00 0.00 75 1017.9
20260902073049 24 360 0.0 0.0 0.00 0.00 0.00 75 1017.8
20260902071545 23 360 0.0 0.0 0.00 0.00 0.00 77 1017.6
20260902070036 22 360 0.0 0.0 0.00 0.00 0.00 81 1017.6
20260902064537 21 360 0.0 0.0 0.00 0.00 0.00 84 1017.8
20260902063028 20 360 0.0 0.0 0.00 0.00 0.00 85 1017.6
20260902061523 19 360 0.0 0.0 0.00 0.00 0.00 85 1017.6
20260902060010 18 360 0.0 0.0 0.00 0.00 0.00 86 1017.4
20260902054503 18 360 0.0 0.0 0.00 0.00 0.00 85 1017.2
20260902053002 18 360 0.0 0.0 0.00 0.00 0.00 85 1017.2
20260902051600 18 360 0.0 0.0 0.00 0.00 0.00 85 1017.1
20260902050058 18 360 0.0 0.0 0.00 0.00 0.00 85 1017.0
20260902044559 18 360 0.0 0.0 0.00 0.00 0.00 85 1016.8
20260902043128 18 360 0.0 0.0 0.00 0.00 0.00 85 1016.8
20260902041607 18 360 0.0 0.0 0.00 0.00 0.00 84 1016.9
20260902040041 18 360 0.0 0.0 0.00 0.00 0.00 84 1016.9
20260902034534 19 360 0.0 0.0 0.00 0.00 0.00 84 1016.9
20260902033022 20 360 0.0 0.0 0.00 0.00 0.00 83 1016.9
20260902031522 20 360 0.0 0.0 0.00 0.00 0.00 83 1016.9
20260902030018 20 360 0.0 0.0 0.00 0.00 0.00 82 1017.0
20260902024516 20 360 0.0 0.0 0.00 0.00 0.00 83 1017.0
20260902023020 20 360 0.0 0.0 0.00 0.00 0.00 83 1017.0
20260902021522 20 360 0.0 0.0 0.00 0.00 0.00 82 1017.0
20260902020014 21 360 0.0 0.0 0.00 0.00 0.00 81 1017.2
20260902014517 21 360 0.0 0.0 0.00 0.00 0.00 81 1017.1
20260902013001 21 360 0.0 0.0 0.00 0.00 0.00 82 1017.1
20260902011608 21 360 0.0 0.0 0.00 0.00 0.00 81 1017.1
20260902010100 21 360 0.0 0.0 0.00 0.00 0.00 81 1017.1
20260902004559 21 360 0.0 0.0 0.00 0.00 0.00 80 1017.1
20260902003059 20 360 0.0 0.0 0.00 0.00 0.00 80 1017.1
20260902001607 21 360 0.0 0.0 0.00 0.00 0.00 80 1017.1
20260902000056 21 360 0.0 0.0 0.00 0.00 0.00 79 1017.2
20260901234604 21 360 0.0 0.0 0.00 0.00 0.00 79 1017.2
20260901233053 21 360 0.0 0.0 0.00 0.00 0.00 79 1017.1
20260901231542 21 360 0.0 0.0 0.00 0.00 0.00 79 1017.0
20260901230038 21 360 0.0 0.0 0.00 0.00 0.00 78 1016.8
20260901224536 22 360 0.0 0.0 0.00 0.00 0.00 78 1016.8
20260901223033 22 360 0.0 0.0 0.00 0.00 0.00 77 1016.8
20260901221534 22 360 0.0 0.0 0.00 0.00 0.00 77 1016.7
20260901220032 22 360 0.0 0.0 0.00 0.00 0.00 76 1016.6
20260901214535 23 360 0.0 0.0 0.00 0.00 0.00 76 1016.5
20260901213008 23 360 0.0 0.0 0.00 0.00 0.00 76 1016.2
20260901211506 23 360 0.0 0.0 0.00 0.00 0.00 76 1016.2
20260901210113 23 360 0.0 0.0 0.00 0.00 0.00 75 1016.1
20260901204551 23 360 0.0 0.0 0.00 0.00 0.00 74 1016.3
20260901203114 24 360 0.0 0.0 0.00 0.00 0.00 73 1016.3
20260901201556 24 360 0.0 0.0 0.00 0.00 0.00 72 1016.4
20260901200047 25 360 0.0 0.0 0.00 0.00 0.00 72 1016.1
20260901194548 25 360 0.0 0.0 0.00 0.00 0.00 72 1015.6
20260901193047 25 360 0.0 0.0 0.00 0.00 0.00 72 1015.6
20260901191600 25 360 0.0 0.0 0.00 0.00 0.00 71 1015.7
20260901190045 25 360 0.0 0.0 0.00 0.00 0.00 71 1015.5
20260901184533 26 360 0.0 0.0 0.00 0.00 0.00 71 1015.3
20260901183031 26 360 0.0 0.0 0.00 0.00 0.00 71 1015.5
20260901181531 26 360 0.0 0.0 0.00 0.00 0.00 70 1015.4
20260901180030 26 360 0.0 0.0 0.00 0.00 0.00 70 1015.5
20260901174527 26 360 0.0 0.0 0.00 0.00 0.00 70 1015.6
20260901173027 26 360 0.0 0.0 0.00 0.00 0.00 69 1016.1
20260901171525 26 360 0.0 0.0 0.00 0.00 0.00 69 1015.8
20260901170025 26 360 0.0 0.0 0.00 0.00 0.00 67 1015.8
20260901164506 26 243 0.0 0.0 0.00 0.00 0.00 68 1016.1
20260901163006 26 243 0.0 0.0 0.00 0.00 0.00 66 1016.3
20260901161553 26 360 0.0 0.0 0.00 0.00 0.00 65 1016.3
20260901160057 26 360 0.0 0.0 0.00 0.00 0.00 61 1016.2
20260901154557 27 360 0.0 0.0 0.00 0.00 0.00 60 1016.3